Home > Weather > Kannauj > Past weeks

Flag for India Past Weather in Kannauj, Uttar Pradesh, India — Yesterday and Last 2 Weeks

Now
81 °F

Partly cloudy.


Feels Like: 89 °F
Forecast: 78 / 85 °F
Wind: No wind

Location: Lucknow / Amausi

Current Time: Jul 30, 2016 at 3:22:08 AM

Latest Report: Jul 30, 2016 at 2:00 AM


Visibility: 2 mi

Pressure: 29.56 "Hg

Humidity: 100%

Dew Point: 81 °F

Location of KannaujLocation

Past Weather in Kannauj — Graph

°F

Kannauj Temperature Yesterday

Maximum temperature yesterday: 86 °F (at 10:30 AM)
Minimum temperature yesterday: 81 °F (at 12:00 AM)
Average temperature yesterday: 83 °F

High & Low Weather Summary for the Past Weeks

 TemperatureHumidityPressure
High97 °F (Jul 24, 2:30 PM)100% (Jul 15, 5:00 AM)29.71 "Hg (Jul 15, 5:00 AM)
Low79 °F (Jul 19, 5:00 AM)46% (Jul 19, 4:00 PM)29.42 "Hg (Jul 15, 4:00 PM)
Average86 °F91%29.56 "Hg
* Reported Jul 15 2:00 AM — Jul 30 2:00 AM, Kannauj, Weather by CustomWeather, © 2016

Note: Actual official high and low records may vary slightly from our data, if they occured in-between our weather recording intervals... More about our weather records

Advertising

Kannauj Weather History for the Previous 24 Hours

Scroll right to see more
 ConditionsComfort  
Time TempWeatherWind HumidityBarometerVisibility
2:00 AM
Sat, Jul 30
81 °FPartly cloudy.No wind100%29.56 "Hg2 mi
1:00 AM81 °FPartly cloudy.No wind100%29.56 "Hg2 mi
12:00 AM81 °FPartly cloudy.No wind100%29.59 "Hg2 mi
11:00 PM
Fri, Jul 29
81 °FPartly cloudy.No wind100%29.59 "Hg2 mi
10:00 PM81 °FPartly cloudy.No wind100%29.59 "Hg2 mi
9:00 PM81 °FPartly cloudy.No wind100%29.56 "Hg2 mi
8:30 PM81 °FPartly cloudy.No wind100%29.56 "Hg2 mi
7:30 PM81 °FPartly cloudy.No wind100%29.53 "Hg2 mi
6:30 PM82 °FBroken clouds.5 mph100%29.53 "Hg2 mi
6:00 PM84 °FBroken clouds.5 mph94%29.53 "Hg2 mi
5:30 PM84 °FBroken clouds.2 mph100%29.50 "Hg2 mi
5:00 PM84 °FBroken clouds.5 mph100%29.50 "Hg2 mi
4:30 PM84 °FBroken clouds.5 mph100%29.50 "Hg2 mi
3:30 PM82 °FLight rain. Broken clouds.2 mph94%29.50 "Hg2 mi
2:30 PM81 °FThunderstorms. Cloudy.2 mph100%29.56 "Hg1 mi
2:00 PM81 °FLight rain. Cloudy.2 mph100%29.56 "Hg1 mi
1:30 PM84 °FLight rain. More clouds than sun.2 mph100%29.59 "Hg1 mi
1:00 PM84 °FLight rain. More clouds than sun.5 mph100%29.59 "Hg2 mi
12:00 PM84 °FLight rain. More clouds than sun.7 mph100%29.59 "Hg2 mi
11:30 AM84 °FMore clouds than sun.6 mph100%29.59 "Hg2 mi
11:00 AM86 °FMore clouds than sun.5 mph94%29.62 "Hg2 mi
10:30 AM86 °FMore clouds than sun.3 mph100%29.62 "Hg2 mi
10:00 AM84 °FMore clouds than sun.2 mph100%29.62 "Hg2 mi
9:30 AM84 °FMore clouds than sun.2 mph94%29.62 "Hg2 mi
9:00 AM84 °FFog.2 mph94%29.62 "Hg2 mi
8:30 AM82 °FFog.No wind100%29.59 "Hg1 mi
8:00 AM82 °FFog.No wind100%29.59 "Hg1 mi
7:30 AM82 °FFog.No wind100%29.59 "Hg1 mi
7:00 AM82 °FFog.No wind100%N/A1 mi
6:30 AM82 °FFog.No wind100%29.56 "Hg1 mi
5:30 AM82 °FDrizzle. Mostly cloudy.No wind100%29.56 "Hg1 mi
5:00 AM82 °FFog.No wind100%29.53 "Hg2 mi
3:51 AM82 °FThunderstorms. Mostly cloudy.No wind94%29.53 "Hg2 mi
3:00 AM81 °FLight rain. Mostly cloudy.No wind100%29.56 "Hg2 mi
Weather by CustomWeather, © 2016

See weather overviewHow to use our weather pages